Simultaneous Nadir Overpasses (SNOs) Predictions

Prediction of SNOs between GOES-17 and NOAA-20 Satellite Orbit:

Table of predicted SNOs for the next 14.0 days since TLE Epoch: 9/21/2024
Index Date Time (GOES-17) GOES-17 Lat,Lon NOAA-20 Lat,Lon Distance(km) Time Diff (sec)
1 09/23/2024 08:24:58 0.01,-104.69 0.05,-104.94 28.03 80
2 09/24/2024 08:03:31 0.00,-104.69 -0.95,-100.40 488.78 80
3 09/25/2024 20:25:23 0.00,-104.70 -0.21,-105.69 113.22 80
4 09/26/2024 20:09:16 0.01,-104.70 0.80,-101.15 404.07 80
5 09/28/2024 08:31:00 -0.02,-104.69 0.36,-106.41 196.07 80
6 09/29/2024 08:09:32 -0.01,-104.69 -0.65,-101.87 321.56 80
7 09/30/2024 20:31:24 0.01,-104.70 -0.54,-107.16 279.94 80
8 10/01/2024 20:15:16 0.00,-104.71 0.47,-102.62 238.26 80
9 10/03/2024 08:37:00 0.00,-104.71 0.73,-107.87 360.31 80
10 10/04/2024 08:15:32 0.01,-104.71 -0.30,-103.33 157.56 80
